This demonstration page uses our WeatherBlox Daily Observations layout. Learn more.

Left ArrowRight Arrow

53.62937, 11.41316

Hourly Observations for December 22, 2018

Temp ( °F °C ) Dew Point ( °F °C ) Humidity (%) Winds ( mph kmh ) Pressure ( in mb ) Visibility ( mi km ) Precip ( " mm )
6:50 am 06:50 Mostly Cloudy 43 6 37 3 81 81 W 5 7 29.62 1003 30 48 N/A
7:20 am 07:20 Mostly Cloudy 41 5 37 3 87 87 W 5 7 29.62 1003 30 48 N/A
7:50 am 07:50 Mostly Cloudy 41 5 37 3 87 87 W 7 11 29.62 1003 30 48 N/A
8:20 am 08:20 Mostly Cloudy 41 5 37 3 87 87 VRB 2 4 29.65 1004 30 48 N/A
8:50 am 08:50 Mostly Cloudy 41 5 37 3 87 87 VRB 2 4 29.65 1004 30 48 N/A
9:20 am 09:20 Mostly Cloudy 41 5 37 3 87 87 VRB 1 2 29.68 1005 30 48 N/A
9:50 am 09:50 Mostly Cloudy 41 5 37 3 87 87 VRB 2 4 29.68 1005 30 48 N/A
10:20 am 10:20 Mostly Cloudy 41 5 37 3 87 87 VRB 2 4 29.71 1006 30 48 N/A
10:50 am 10:50 Mostly Cloudy 41 5 37 3 87 87 VRB 2 4 29.74 1007 30 48 N/A
11:20 am 11:20 Mostly Cloudy 41 5 37 3 87 87 VRB 2 4 29.74 1007 30 48 N/A
11:50 am 11:50 Mostly Cloudy 41 5 37 3 87 87 VRB 2 4 29.77 1008 30 48 N/A
12:20 pm 12:20 Mostly Cloudy 41 5 37 3 87 87 VRB 1 2 29.77 1008 30 48 N/A
12:50 pm 12:50 Mostly Cloudy 41 5 37 3 87 87 NE 3 6 29.77 1008 30 48 N/A
1:20 pm 13:20 Mostly Cloudy 43 6 37 3 81 81 VRB 1 2 29.77 1008 30 48 N/A
1:50 pm 13:50 Mostly Cloudy 43 6 37 3 81 81 SW 3 6 29.80 1009 30 48 N/A
2:20 pm 14:20 Mostly Cloudy 43 6 37 3 81 81 VRB 2 4 29.80 1009 30 48 N/A
2:50 pm 14:50 Mostly Cloudy 43 6 37 3 81 81 Calm 29.80 1009 30 48 N/A
3:20 pm 15:20 Mostly Cloudy 43 6 39 4 87 87 VRB 1 2 29.83 1010 30 48 N/A
3:50 pm 15:50 Mostly Cloudy 43 6 39 4 87 87 ENE 3 6 29.83 1010 30 48 N/A
4:20 pm 16:20 Mostly Cloudy 41 5 39 4 93 93 E 2 4 29.83 1010 30 48 N/A
4:50 pm 16:50 Mostly Cloudy 41 5 39 4 93 93 NE 2 4 29.83 1010 30 48 N/A
5:20 pm 17:20 Mostly Cloudy 41 5 39 4 93 93 NE 2 4 29.85 1011 30 48 N/A
5:50 pm 17:50 Mostly Cloudy 41 5 39 4 93 93 VRB 2 4 29.85 1011 30 48 N/A
6:20 pm 18:20 Mostly Cloudy 41 5 39 4 93 93 VRB 1 2 29.85 1011 30 48 N/A
6:50 pm 18:50 Mostly Cloudy 41 5 39 4 93 93 VRB 1 2 29.88 1012 30 48 N/A

Powered by AerisWeather